When you browse on this site, cookies collect data to enhance your experience and personalize the content and advertising you see.
Visit our Privacy Policy to learn more. By continuing to use the site, you agree to this use of cookies and data.
  • In France
  • List of Countries
  • For 7 days
  • Water Temperature
  • Weather Map
  • Weather Widgets
  • user-avatar
    Login

    Hourly Weather Cuiaba

    Today, 6 December, Friday

    Time Temperature Precipitation Wind Pressure Humidity
    00:00 +26°C° 0.1 mm 1 mps 739 mmHg 92%
    01:00 +26°C° 0.1 mm 1 mps 738 mmHg 92%
    02:00 +24°C° 0.1 mm 0 mps 738 mmHg 92%
    03:00 +26°C° 0 mm 1 mps 738 mmHg 93%
    04:00 +26°C° 0 mm 1 mps 738 mmHg 94%
    05:00 +25°C° 0 mm 1 mps 739 mmHg 95%
    06:00 +26°C° 0.1 mm 1 mps 739 mmHg 91%
    07:00 +27°C° 0.1 mm 2 mps 740 mmHg 87%
    08:00 +28°C° 0.1 mm 2 mps 741 mmHg 83%
    09:00 +30°C° 0.1 mm 2 mps 740 mmHg 76%
    10:00 +31°C° 0.1 mm 1 mps 740 mmHg 69%
    11:00 +33°C° 0.1 mm 1 mps 740 mmHg 62%
    12:00 +35°C° 0.4 mm 2 mps 739 mmHg 60%
    13:00 +35°C° 0.4 mm 2 mps 738 mmHg 58%
    14:00 +35°C° 0.4 mm 2 mps 737 mmHg 57%
    15:00 +35°C° 0 mm 2 mps 737 mmHg 58%
    16:00 +35°C° 0 mm 2 mps 736 mmHg 59%
    17:00 +33°C° 0 mm 1 mps 736 mmHg 60%
    18:00 +32°C° 0.1 mm 1 mps 737 mmHg 64%
    19:00 +31°C° 0.1 mm 1 mps 737 mmHg 68%
    20:00 +29°C° 0.1 mm 1 mps 738 mmHg 73%
    21:00 +29°C° 0.1 mm 1 mps 738 mmHg 75%
    22:00 +28°C° 0.1 mm 1 mps 738 mmHg 77%
    23:00 +28°C° 0.1 mm 1 mps 738 mmHg 79%

    Tomorrow, 7 December, Saturday

    Time Temperature Precipitation Wind Pressure Humidity
    00:00 +27°C° 0 mm 1 mps 738 mmHg 81%
    01:00 +27°C° 0 mm 1 mps 737 mmHg 83%
    02:00 +24°C° 0 mm 0 mps 737 mmHg 84%
    03:00 +24°C° 0 mm 0 mps 737 mmHg 85%
    04:00 +24°C° 0 mm 0 mps 737 mmHg 86%
    05:00 +24°C° 0 mm 0 mps 737 mmHg 87%
    06:00 +26°C° 0.1 mm 0 mps 738 mmHg 80%
    07:00 +30°C° 0.1 mm 1 mps 738 mmHg 73%
    08:00 +32°C° 0.1 mm 1 mps 739 mmHg 66%
    09:00 +33°C° 1.3 mm 1 mps 739 mmHg 63%
    10:00 +34°C° 1.3 mm 1 mps 738 mmHg 60%
    11:00 +35°C° 1.3 mm 1 mps 738 mmHg 56%
    12:00 +35°C° 0.6 mm 1 mps 737 mmHg 56%
    13:00 +35°C° 0.6 mm 1 mps 737 mmHg 55%
    14:00 +36°C° 0.6 mm 2 mps 736 mmHg 54%
    15:00 +34°C° 0.4 mm 2 mps 736 mmHg 61%
    16:00 +32°C° 0.4 mm 2 mps 735 mmHg 68%
    17:00 +30°C° 0.4 mm 2 mps 735 mmHg 76%
    18:00 +29°C° 0.2 mm 2 mps 736 mmHg 79%
    19:00 +28°C° 0.2 mm 2 mps 736 mmHg 82%
    20:00 +27°C° 0.2 mm 2 mps 737 mmHg 85%
    21:00 +27°C° 0.1 mm 1 mps 737 mmHg 85%
    22:00 +27°C° 0.1 mm 1 mps 737 mmHg 86%
    23:00 +26°C° 0.1 mm 1 mps 737 mmHg 87%

    Day after tomorrow, 8 December, Sunday

    Time Temperature Precipitation Wind Pressure Humidity
    00:00 +26°C° 0.1 mm 1 mps 737 mmHg 89%
    01:00 +26°C° 0.1 mm 1 mps 737 mmHg 90%
    02:00 +25°C° 0.1 mm 1 mps 736 mmHg 92%
    03:00 +25°C° 0 mm 1 mps 737 mmHg 92%
    04:00 +25°C° 0 mm 1 mps 737 mmHg 93%
    05:00 +25°C° 0 mm 1 mps 737 mmHg 93%
    06:00 +27°C° 0 mm 1 mps 737 mmHg 86%
    07:00 +28°C° 0 mm 1 mps 738 mmHg 79%
    08:00 +30°C° 0 mm 1 mps 738 mmHg 73%
    09:00 +32°C° 0.2 mm 1 mps 738 mmHg 65%
    10:00 +34°C° 0.2 mm 1 mps 738 mmHg 58%
    11:00 +36°C° 0.2 mm 2 mps 738 mmHg 51%
    12:00 +36°C° 0.4 mm 2 mps 737 mmHg 52%
    13:00 +36°C° 0.4 mm 2 mps 736 mmHg 53%
    14:00 +36°C° 0.4 mm 2 mps 736 mmHg 53%
    15:00 +35°C° 0.2 mm 2 mps 735 mmHg 58%
    16:00 +34°C° 0.2 mm 2 mps 735 mmHg 62%
    17:00 +32°C° 0.2 mm 2 mps 735 mmHg 67%
    18:00 +31°C° 0.2 mm 2 mps 735 mmHg 71%
    19:00 +29°C° 0.2 mm 2 mps 736 mmHg 75%
    20:00 +28°C° 0.2 mm 2 mps 736 mmHg 79%
    21:00 +27°C° 0.9 mm 2 mps 737 mmHg 83%
    22:00 +27°C° 0.9 mm 2 mps 737 mmHg 87%
    23:00 +26°C° 0.9 mm 1 mps 737 mmHg 91%

    9 December, Monday

    Time Temperature Precipitation Wind Pressure Humidity
    00:00 +26°C° 1.4 mm 1 mps 737 mmHg 92%
    01:00 +26°C° 1.4 mm 1 mps 737 mmHg 93%
    02:00 +25°C° 1.4 mm 1 mps 737 mmHg 94%
    03:00 +25°C° 2.2 mm 2 mps 737 mmHg 95%
    04:00 +25°C° 2.2 mm 2 mps 737 mmHg 96%
    05:00 +25°C° 2.2 mm 2 mps 737 mmHg 97%
    06:00 +25°C° 1.4 mm 2 mps 738 mmHg 97%
    07:00 +25°C° 1.4 mm 1 mps 738 mmHg 96%
    08:00 +26°C° 1.4 mm 1 mps 739 mmHg 95%
    09:00 +26°C° 0.4 mm 1 mps 739 mmHg 94%
    10:00 +26°C° 0.4 mm 1 mps 739 mmHg 92%
    11:00 +27°C° 0.4 mm 1 mps 739 mmHg 90%
    12:00 +27°C° 0.2 mm 1 mps 739 mmHg 89%
    13:00 +27°C° 0.2 mm 1 mps 738 mmHg 87%
    14:00 +25°C° 0.2 mm 0 mps 737 mmHg 86%
    15:00 +27°C° 0 mm 1 mps 737 mmHg 86%
    16:00 +27°C° 0 mm 1 mps 737 mmHg 87%
    17:00 +27°C° 0 mm 1 mps 737 mmHg 87%
    18:00 +27°C° 0.1 mm 1 mps 737 mmHg 89%
    19:00 +24°C° 0.1 mm 0 mps 737 mmHg 91%
    20:00 +23°C° 0.1 mm 0 mps 738 mmHg 93%
    21:00 +23°C° 0 mm 0 mps 738 mmHg 91%
    22:00 +25°C° 0 mm 1 mps 738 mmHg 90%
    23:00 +25°C° 0 mm 1 mps 738 mmHg 89%

    10 December, Tuesday

    Time Temperature Precipitation Wind Pressure Humidity
    00:00 +25°C° 0 mm 1 mps 738 mmHg 89%
    01:00 +23°C° 0 mm 0 mps 737 mmHg 89%
    02:00 +23°C° 0 mm 0 mps 737 mmHg 90%
    03:00 +25°C° 0.2 mm 1 mps 737 mmHg 90%
    04:00 +25°C° 0.2 mm 1 mps 737 mmHg 91%
    05:00 +25°C° 0.2 mm 1 mps 737 mmHg 91%
    06:00 +26°C° 0.3 mm 1 mps 738 mmHg 89%
    07:00 +26°C° 0.3 mm 1 mps 738 mmHg 87%
    08:00 +27°C° 0.3 mm 1 mps 739 mmHg 85%
    09:00 +28°C° 1.1 mm 1 mps 739 mmHg 81%
    10:00 +29°C° 1.1 mm 2 mps 739 mmHg 77%
    11:00 +31°C° 1.1 mm 3 mps 738 mmHg 72%
    12:00 +31°C° 1.1 mm 3 mps 738 mmHg 70%
    13:00 +33°C° 1.1 mm 3 mps 737 mmHg 68%
    14:00 +33°C° 1.1 mm 3 mps 736 mmHg 65%
    15:00 +31°C° 1.2 mm 3 mps 736 mmHg 70%
    16:00 +30°C° 1.2 mm 2 mps 736 mmHg 76%
    17:00 +29°C° 1.2 mm 2 mps 735 mmHg 81%
    18:00 +28°C° 0 mm 1 mps 736 mmHg 83%
    19:00 +27°C° 0 mm 1 mps 736 mmHg 85%
    20:00 +27°C° 0 mm 1 mps 737 mmHg 87%
    21:00 +26°C° 0.4 mm 1 mps 737 mmHg 88%
    22:00 +26°C° 0.4 mm 2 mps 737 mmHg 89%
    23:00 +26°C° 0.4 mm 2 mps 738 mmHg 90%

    11 December, Wednesday

    Time Temperature Precipitation Wind Pressure Humidity
    00:00 +26°C° 0.2 mm 2 mps 737 mmHg 91%
    01:00 +25°C° 0.2 mm 2 mps 737 mmHg 92%
    02:00 +25°C° 0.2 mm 2 mps 736 mmHg 93%
    03:00 +25°C° 0.1 mm 2 mps 736 mmHg 94%
    04:00 +25°C° 0.1 mm 2 mps 736 mmHg 94%
    05:00 +25°C° 0.1 mm 1 mps 736 mmHg 94%
    06:00 +25°C° 0.1 mm 1 mps 737 mmHg 92%
    07:00 +26°C° 0.1 mm 2 mps 738 mmHg 90%
    08:00 +27°C° 0.1 mm 2 mps 738 mmHg 89%
    09:00 +28°C° 0.1 mm 2 mps 738 mmHg 84%
    10:00 +29°C° 0.1 mm 2 mps 738 mmHg 80%
    11:00 +29°C° 0.1 mm 2 mps 738 mmHg 76%
    12:00 +30°C° 1.7 mm 2 mps 737 mmHg 77%
    13:00 +30°C° 1.7 mm 2 mps 736 mmHg 77%
    14:00 +30°C° 1.7 mm 1 mps 735 mmHg 78%
    15:00 +30°C° 1.9 mm 1 mps 735 mmHg 81%
    16:00 +29°C° 1.9 mm 1 mps 735 mmHg 85%
    17:00 +28°C° 1.9 mm 1 mps 735 mmHg 88%
    18:00 +27°C° 0.8 mm 2 mps 735 mmHg 89%
    19:00 +27°C° 0.8 mm 2 mps 736 mmHg 90%
    20:00 +26°C° 0.8 mm 3 mps 736 mmHg 91%
    21:00 +26°C° 0.1 mm 3 mps 736 mmHg 92%
    22:00 +25°C° 0.1 mm 3 mps 737 mmHg 92%
    23:00 +25°C° 0.1 mm 3 mps 737 mmHg 92%
    Show more